{"data":{"norad_id":44783,"intl_designator":"2019-076E","name":"NINGXIA-1 5","alt_names":[],"object_type":"PAYLOAD","status":"ACTIVE","operator":null,"country":"PRC","launch_date":"2019-11-13","launch_site_code":"TAISC","launch_vehicle":null,"mission":null,"orbit_class":"UNKNOWN","rcs_meters":null,"size_class":null,"mass_kg":null,"dimensions":null,"purposes":[],"wikipedia_slug":null,"has_3d_model":false,"image_url":null,"decayed_at":null,"tle_current":{"epoch":"2026-05-25T04:18:15.761376Z","epoch_age_seconds":55552,"freshness":"FRESH","line1":"1 44783U 19076E   26145.17934909 -.00000058  00000+0  46935-4 0  9993","line2":"2 44783  45.0063 282.0210 0010318  36.5468 323.6069 14.02084797334546","mean_motion":14.02084797,"eccentricity":0.0010318,"inclination_deg":45.0063,"raan_deg":282.021,"arg_perigee_deg":36.5468,"mean_anomaly_deg":323.6069,"bstar":4.6935e-5,"rev_number":33454,"period_min":102.70420184864,"perigee_km":879.08906085252,"apogee_km":894.08054076066,"semimajor_km":7264.7218008066,"source":"CELESTRAK","updated_at":"2026-05-25T13:37:56.031303Z"}}}